"Pseudo-MPEC" for CEGAW82

Created 2026 Apr 10 6:35:06 UT using Find_Orb

Click here for an explanation of pseudo-MPECs

 
 Astrometry: 
     CEGAW82*1C2026 04 08.18605411 42 08.885+01 00 52.49   ~4855       VNEOCPG96
     CEGAW82 1C2026 04 08.19170411 42 10.854+01 01 39.40   ~4855 20.68GVNEOCPG96
     CEGAW82 1C2026 04 08.19735411 42 12.812+01 02 25.87   ~4855 20.34GVNEOCPG96
     CEGAW82 1C2026 04 08.20299911 42 14.720+01 03 11.81   ~4855 20.63GVNEOCPG96
     CEGAW82 1C2026 04 08.27933111 42 40.921+01 13 41.20   ~4875 20.74GVNEOCPI52
     CEGAW82 1C2026 04 08.28043611 42 41.324+01 13 49.62   ~4875 20.64GVNEOCPI52
     CEGAW82 1C2026 04 08.28154811 42 41.674+01 13 59.05   ~4875 21.12GVNEOCPI52
     CEGAW82 1C2026 04 08.28265611 42 42.052+01 14 08.45   ~4875 20.48GVNEOCPI52
     CEGAW82 3C2026 04 08.81670611 46 17.619+02 27 20.35   ~49HK 21.4 GWNEOCP246
     CEGAW82 KB2026 04 08.82009811 46 20.42 +02 27 55.8    ~48KZ       VNEOCPI93
     CEGAW82 3C2026 04 08.82013111 46 18.895+02 27 48.97   ~49HK 21.3 GWNEOCP246
     CEGAW82 3C2026 04 08.82525811 46 20.750+02 28 32.06   ~49HK 21.2 GWNEOCP246
     CEGAW82 KB2026 04 08.82700711 46 22.97 +02 28 53.1    ~48KZ 20.5 GVNEOCPI93
     CEGAW82 3C2026 04 08.82989211 46 22.427+02 29 11.06   ~49HK 21.3 GWNEOCP246
     CEGAW82 KB2026 04 08.83378711 46 25.41 +02 29 49.2    ~48KZ 20.8 GVNEOCPI93
     CEGAW82 1C2026 04 08.86634211 46 35.836+02 34 15.89   ~48LKx21.1 GWNEOCP246
     CEGAW82 1C2026 04 08.86671911 46 35.871+02 34 18.44   ~48LK 21.1 GWNEOCP246
     CEGAW82 KB2026 04 08.87154511 46 37.72 +02 35 03.5    ~48LZ 20.4 GVNEOCPL01
     CEGAW82 KB2026 04 08.87435211 46 39.067+02 35 28.00   ~48M5 19.8 GXNEOCPD31
     CEGAW82 KB2026 04 08.88257111 46 41.67 +02 36 35.4    ~48LZ 20.4 GVNEOCPL01
     CEGAW82 0B2026 04 08.88815311 46 44.186+02 37 20.94   ~491K 20.6 GWNEOCP204
     CEGAW82 KB2026 04 08.90326411 46 49.435+02 39 28.62   ~48M5 19.6 GXNEOCPD31
     CEGAW82 0B2026 04 08.90728011 46 51.046+02 40 00.48   ~491K       WNEOCP204
     CEGAW82 |C2026 04 09.01127011 47 37.930+02 57 13.50   ~491Z 20.5 GVNEOCP807
     CEGAW82 |C2026 04 09.02303011 47 42.240+02 58 52.00   ~491Z 20.8 GVNEOCP807
     CEGAW82 |C2026 04 09.03478011 47 46.470+03 00 30.50   ~491Z 21.0 GVNEOCP807
     CEGAW82 KC2026 04 09.12392511 48 20.14 +03 10 19.3    ~493Z 20.9 GVNEOCPH21
     CEGAW82 KC2026 04 09.12672511 48 21.13 +03 10 42.8    ~493Z 20.8 GVNEOCPH21
     CEGAW82 KC2026 04 09.13092311 48 22.67 +03 11 18.0    ~493Z 20.7 GVNEOCPH21
     CEGAW82 KC2026 04 09.13390811 48 23.74 +03 11 42.9    ~493Z 20.8 GVNEOCPH21
     CEGAW82 1C2026 04 09.15802911 48 35.300+03 15 17.00   ~4945       VNEOCPI52
     CEGAW82 1C2026 04 09.15867011 48 35.579+03 15 22.82   ~4945 20.63GVNEOCPI52
     CEGAW82 1C2026 04 09.15930511 48 35.845+03 15 28.69   ~4945 21.03GVNEOCPI52
     CEGAW82 |C2026 04 10.10099011 54 57.460+05 29 42.80   ~4A35 20.8 GVNEOCP807
     CEGAW82 |C2026 04 10.10289011 54 58.120+05 29 59.00   ~4A35 21.2 GVNEOCP807
     CEGAW82 |C2026 04 10.10480011 54 58.810+05 30 15.30   ~4A35 20.4 GVNEOCP807
     CEGAW82 1C2026 04 10.17946911 55 31.321+05 38 20.26   ~4A4Z 21.19GVNEOCPI52
     CEGAW82 1C2026 04 10.18050311 55 31.710+05 38 29.54   ~4A4Z 20.99GVNEOCPI52
     CEGAW82 1C2026 04 10.18153711 55 32.074+05 38 39.08   ~4A4Z 20.33GVNEOCPI52

Station data:
(204) Schiaparelli Observatory  (N45.868292 E8.769720)  Italy.  Observer L.
   Buzzi. 0.84-m f/3.5 reflector + CCD.
(246) Klet Observatory-KLENOT  (N48.863991 E14.284760)  Czech Republic.
   Observers J. Ticha, M. Micheli. Measurer M. Tichy. 1.06-m f/2.7 reflector
   + 2048x2048 CCD.
(807) Cerro Tololo Observatory, La Serena  (S30.169133 W70.805900)  Chile.
   Observer R. Holmes. 0.61-m f/6.5 astrograph + CCD.
(D31) Osservatorio Aldebaran, Rivalba  (N44.504350 E10.097970)  Italy.
   Observer M. Stefanini. 0.36-m f/6.6 Schmidt-Cassegrain + CMO.
(G96) Mt. Lemmon Survey  (N32.442729 W110.788720)  US/Arizona.  Observer E.
   J. Christensen. Measurers T. Beuden, V. F. Carvajal, D. Fay, J. B.
   Fazekas, D. C. Fuls, A. R. Gibbs, A. D. Grauer, H. Gröller, J. K. Hogan,
   R. A. Kowalski, S. M. Larson, G. J. Leonard, D. Rankin, R. L. Seaman, F.
   C. Shelly, K. W. Wierzchoś. 1.5-m reflector + 10K CCD.
(H21) Astronomical Research Observatory, Westfield  (N39.483054 W87.968270)
   US/Illinois.  Observer R. Holmes. Measurers S. Foglia, L. Buzzi, T.
   Linder, R. Holmes. 0.40-m f/5.32 astrograph + CCD.
(I52) Steward Observatory, Mt. Lemmon Station  (N32.442570 W110.788920)
   US/Arizona. Measurers T. Beuden, V. F. Carvajal, D. Fay, J. B. Fazekas, D.
   C. Fuls, A. R. Gibbs, A. D. Grauer, H. Gröller, J. K. Hogan, R. A.
   Kowalski, S. M. Larson, G. J. Leonard, D. Rankin, R. L. Seaman, F. C.
   Shelly, K. W. Wierzchoś. 1.0-m prime focus + CCD.
(I93) St Pardon de Conques  (N44.558670 W0.202960)  France.  Observers F.
   Losse, W. D'Anna. Measurer F. Losse. 0.40-m f/3.7 reflector + CCD.
(L01) Višnjan Observatory, Tičan  (N45.290897 E13.749300)  Croatia.
   Observers K. Korlević, L. Poropat. Measurer K. Korlevic. 1.0-m f/2.9
   reflector + CCD.

Orbital elements:  CEGAW82
   Perihelion 2026 Apr 17.537802 +/- 0.0229 TT = 12:54:26.0 (JD 2461148.037802)
Epoch 2026 Apr 10.0 TT = JDT 2461140.5   Earth MOID: 0.0584      AutoNEOCP
M 355.146610406 +/- 0.013           (J2000 ecliptic)
n   0.643873321 +/- 0.000568        Peri.    8.979305 +/- 0.023
a   1.328217186 +/- 0.000782        Node   196.945609 +/- 0.0019
e   0.20303514 +/- 0.000407         Incl.    9.720345 +/- 0.014
P   1.531/559.106d         H 25.82  G  0.15   U  7.7
q 1.058542419 +/- 8.62e-5    Q 1.597891954 +/- 0.00148
38 of 39 observations 2026 Apr. 8-10 (47.9 hr); mean residual 0".39
Residuals in arcseconds: 
260408 G96  .22-  .05+    260408 246  .01+  .48+    260409 H21  .20+  .19+    
260408 G96  .03+  .44+    260408 I93  .62-  .65-    260409 H21  .10-  .26+    
260408 G96  .16+  .39+    260408 246( 2.7+  1.7+)   260409 H21  .31+  .33+    
260408 G96  .40-  .15-    260408 246  1.2+  1.1+    260409 H21  .25+  .25+    
260408 I52  .26-  .40+    260408 L01  .60+  .16-    260409 I52  .87-  .68-    
260408 I52  .08+  .29-    260408 D31  .68-  .37-    260409 I52  .16-  .23-    
260408 I52  .41-  .02-    260408 L01  .50+  .12-    260409 I52  .38+  .32+    
260408 I52  .45-  .25+    260408 204  .07+  .00     260410 807  .33+  .15-    
260408 246  .08+  .39-    260408 D31  .59-  .65-    260410 807  .14-  .01-    
260408 I93  .06+  .06+    260408 204  .09-  .16+    260410 807  .22-  .15+    
260408 246  .44+  .30-    260409 807  .21+  .24-    260410 I52  .22-  .45-    
260408 246  .19+  .08+    260409 807  .48+  .17-    260410 I52  .12-  .07+    
260408 I93  .13+  .23-    260409 807  .02+  .01-    260410 I52  .39-  .86+    

Ephemerides (geocentric):
Date (UTC) HH   RA             Dec           delta  r     elong  mag " sig PA
---- --------  ------------   ------------  ------ ------ -----  --- --------
2026 04 10 07  11 56 14.255   +05 55 10.68  .06324 1.0599 156.2 21.0 .096  79
2026 04 10 08  11 56 31.554   +06 01 02.18  .06322 1.0599 156.2 21.0 .099  76
2026 04 10 09  11 56 48.873   +06 06 53.73  .06321 1.0599 156.1 21.0 .102  74
2026 04 10 10  11 57 06.210   +06 12 45.32  .06320 1.0599 156.1 21.0 .105  72
2026 04 10 11  11 57 23.565   +06 18 36.97  .06319 1.0599 156.1 21.0 .109  69
2026 04 10 12  11 57 40.939   +06 24 28.65  .06317 1.0599 156.0 21.0 .112  67
2026 04 10 13  11 57 58.332   +06 30 20.37  .06316 1.0599 156.0 21.0 .116  65
2026 04 10 14  11 58 15.743   +06 36 12.13  .06315 1.0598 155.9 21.0 .121  64
2026 04 10 15  11 58 33.172   +06 42 03.90  .06314 1.0598 155.9 21.0 .125  62
2026 04 10 16  11 58 50.619   +06 47 55.71  .06313 1.0598 155.8 21.0 .130  60
2026 04 10 17  11 59 08.084   +06 53 47.52  .06312 1.0598 155.8 21.0 .134  59
2026 04 10 18  11 59 25.567   +06 59 39.35  .06311 1.0598 155.8 21.0 .139  57
2026 04 10 19  11 59 43.069   +07 05 31.19  .06310 1.0598 155.7 21.0 .144  56
2026 04 10 20  12 00 00.588   +07 11 23.03  .06309 1.0597 155.7 21.0 .149  55
2026 04 10 21  12 00 18.125   +07 17 14.87  .06308 1.0597 155.6 21.0 .155  54
2026 04 10 22  12 00 35.680   +07 23 06.70  .06307 1.0597 155.6 21.0 .160  53
2026 04 10 23  12 00 53.252   +07 28 58.52  .06306 1.0597 155.5 21.0 .166  52
2026 04 11 00  12 01 10.842   +07 34 50.32  .06305 1.0597 155.5 21.0 .171  51
2026 04 11 01  12 01 28.450   +07 40 42.11  .06305 1.0597 155.5 21.0 .177  50
2026 04 11 02  12 01 46.075   +07 46 33.86  .06304 1.0597 155.4 21.0 .183  49
2026 04 11 03  12 02 03.717   +07 52 25.59  .06303 1.0596 155.4 21.0 .189  48
2026 04 11 04  12 02 21.376   +07 58 17.28  .06303 1.0596 155.3 21.0 .195  47
2026 04 11 05  12 02 39.053   +08 04 08.92  .06302 1.0596 155.3 21.0 .201  46
2026 04 11 06  12 02 56.747   +08 10 00.53  .06301 1.0596 155.2 21.0 .208  46
2026 04 11 07  12 03 14.458   +08 15 52.08  .06301 1.0596 155.2 21.0 .214  45
2026 04 11 08  12 03 32.186   +08 21 43.58  .06300 1.0596 155.1 21.0 .221  45
2026 04 11 09  12 03 49.931   +08 27 35.02  .06300 1.0596 155.1 21.0 .227  44
2026 04 11 10  12 04 07.692   +08 33 26.39  .06299 1.0595 155.0 21.0 .234  43
2026 04 11 11  12 04 25.470   +08 39 17.69  .06299 1.0595 155.0 21.1 .241  43
2026 04 11 12  12 04 43.265   +08 45 08.92  .06298 1.0595 154.9 21.1 .248  42
2026 04 11 13  12 05 01.077   +08 51 00.07  .06298 1.0595 154.9 21.1 .255  42
2026 04 11 14  12 05 18.905   +08 56 51.14  .06298 1.0595 154.8 21.1 .262  41
2026 04 11 15  12 05 36.749   +09 02 42.12  .06297 1.0595 154.8 21.1 .269  41
2026 04 11 16  12 05 54.609   +09 08 33.00  .06297 1.0595 154.7 21.1 .277  41
2026 04 11 17  12 06 12.486   +09 14 23.78  .06297 1.0595 154.7 21.1 .284  40
2026 04 11 18  12 06 30.379   +09 20 14.46  .06297 1.0594 154.6 21.1 .292  40
2026 04 11 19  12 06 48.288   +09 26 05.04  .06296 1.0594 154.6 21.1 .299  39
2026 04 11 20  12 07 06.213   +09 31 55.50  .06296 1.0594 154.5 21.1 .307  39
2026 04 11 21  12 07 24.154   +09 37 45.84  .06296 1.0594 154.5 21.1 .315  39
2026 04 11 22  12 07 42.110   +09 43 36.06  .06296 1.0594 154.4 21.1 .323  38
2026 04 11 23  12 08 00.083   +09 49 26.15  .06296 1.0594 154.4 21.1 .331  38
2026 04 12 00  12 08 18.070   +09 55 16.11  .06296 1.0594 154.3 21.1 .339  38
2026 04 12 01  12 08 36.074   +10 01 05.93  .06296 1.0594 154.3 21.1 .347  38
2026 04 12 02  12 08 54.093   +10 06 55.61  .06296 1.0593 154.2 21.1 .355  37
2026 04 12 03  12 09 12.127   +10 12 45.14  .06296 1.0593 154.1 21.1 .363  37
2026 04 12 04  12 09 30.177   +10 18 34.52  .06296 1.0593 154.1 21.1 .372  37
2026 04 12 05  12 09 48.241   +10 24 23.75  .06297 1.0593 154.0 21.1 .380  37
2026 04 12 06  12 10 06.321   +10 30 12.81  .06297 1.0593 154.0 21.1 .389  36